TimeEST,TemperatureF,Dew PointF,Humidity,Sea Level PressureIn,VisibilityMPH,Wind Direction,Wind SpeedMPH,Gust SpeedMPH,PrecipitationIn,Events,Conditions,WindDirDegrees,DateUTC
12:53 AM,41.0,30.0,65,30.01,10.0,SSW,4.6,-,N/A,,Clear,210,2013-02-05 05:53:00
1:53 AM,42.1,30.0,62,29.99,10.0,SSW,6.9,-,N/A,,Clear,200,2013-02-05 06:53:00
2:53 AM,41.0,30.9,67,29.97,10.0,Calm,Calm,-,N/A,,Overcast,0,2013-02-05 07:53:00
3:53 AM,41.0,30.9,67,29.95,10.0,SSW,3.5,-,N/A,,Scattered Clouds,200,2013-02-05 08:53:00
4:53 AM,42.1,33.1,70,29.95,10.0,SSW,5.8,-,N/A,,Clear,210,2013-02-05 09:53:00
5:53 AM,41.0,33.1,73,29.96,10.0,SW,6.9,-,N/A,,Clear,220,2013-02-05 10:53:00
6:53 AM,39.0,34.0,82,29.97,10.0,SW,6.9,-,N/A,,Clear,220,2013-02-05 11:53:00
7:53 AM,39.0,34.0,82,30.01,10.0,SW,5.8,-,N/A,,Clear,220,2013-02-05 12:53:00
8:53 AM,46.0,34.0,63,29.99,10.0,SSW,9.2,-,N/A,,Clear,210,2013-02-05 13:53:00
9:53 AM,52.0,32.0,47,30.01,10.0,SW,15.0,21.9,N/A,,Clear,230,2013-02-05 14:53:00
10:53 AM,57.0,32.0,39,29.99,10.0,SW,17.3,20.7,N/A,,Clear,220,2013-02-05 15:53:00
11:53 AM,59.0,32.0,36,29.97,10.0,WSW,15.0,23.0,N/A,,Mostly Cloudy,240,2013-02-05 16:53:00
12:53 PM,60.1,33.1,36,29.93,10.0,SW,15.0,-,N/A,,Scattered Clouds,230,2013-02-05 17:53:00
1:53 PM,62.1,33.1,34,29.91,10.0,WSW,10.4,20.7,N/A,,Overcast,240,2013-02-05 18:53:00
2:53 PM,64.9,30.9,28,29.89,10.0,SW,15.0,24.2,N/A,,Scattered Clouds,230,2013-02-05 19:53:00
3:53 PM,64.9,33.1,31,29.87,10.0,SW,15.0,-,N/A,,Clear,220,2013-02-05 20:53:00
4:53 PM,63.0,34.0,34,29.88,10.0,SW,10.4,-,N/A,,Scattered Clouds,220,2013-02-05 21:53:00
5:53 PM,59.0,35.1,41,29.88,10.0,SSW,6.9,-,N/A,,Overcast,210,2013-02-05 22:53:00
6:53 PM,57.9,36.0,44,29.90,10.0,South,3.5,-,N/A,,Scattered Clouds,190,2013-02-05 23:53:00
7:53 PM,53.1,37.0,55,29.92,10.0,SSW,5.8,-,N/A,,Clear,210,2013-02-06 00:53:00
8:53 PM,52.0,39.9,63,29.94,10.0,SW,8.1,-,N/A,,Clear,230,2013-02-06 01:53:00
9:53 PM,52.0,42.1,69,29.95,10.0,WSW,6.9,-,N/A,,Clear,240,2013-02-06 02:53:00
10:53 PM,52.0,43.0,71,29.96,10.0,WSW,6.9,-,N/A,,Clear,250,2013-02-06 03:53:00
11:53 PM,51.1,43.0,74,29.97,10.0,West,4.6,-,N/A,,Clear,260,2013-02-06 04:53:00